NOAA 16 DEB

Satellite information

Favourite Embed

Satellite Type and Status

DEBRISIN ORBIT

Key statistics

Satellite NOAA 16 DEB at a glance.

Uptime

9115

Days in orbit

Revolutions

≈ 14.5

Per day

Orbit

SSO

Sun Synchronous Orbit

Inclination

99.1

Latest

Satellite identification and parameters

Extended collection of information and parameters for NOAA 16 DEB.

Object identification

Identified? True

Debris? True

Object name: NOAA 16 DEB

International designator: 2000-055EG

Object number (NORAD): 41227

Object ID (CCSDS): 41227

Country: UNITED STATES OF AMERICA (US)

Current information (Y/N): Y

RCS size: SMALL

Orbital parameters

Period: 99.313 minutes

Inclination: 99.0613 deg

SMA: 7103.93 km

Apoapsis: 743.039 km

Periapsis: 708.552 km

RAAN: 115.839 deg

Eccentricy: 0.00242736

Argument of periapsis: 255.5738 deg

Mean anomaly: 104.276 deg

Mean motion: 14.49955663 rev/day

Mean motion (dot): 0.00021754 rev/day2

B* drag term: 0.0055968578 1/REarth

Two-line elements (TLE)

Creation date: Sept. 2, 2025, 11:42 p.m.

Reference frame: TEME

Reference center: EARTH

Epoch: Sept. 2, 2025, 9:08 a.m. UTC

TLE line 0: 0 NOAA 16 DEB

TLE line 1: 1 41227U 00055EG 25245.38079644 .00021754 00000-0 55969-2 0 9990

TLE line 2: 2 41227 99.0613 115.8390 0024274 255.5738 104.2760 14.49955663505773

Live tracking on map

Real-time ground track for satellite NOAA 16 DEB.

In-orbit conjunctions

A list of the most updated potential collisions computed for object NOAA 16 DEB.

Target Orbit TCA Probability of collision Miss distance Type
THOR BURNER 2 R/B SSO 2025-05-15 02:19:11 0.000103265 488.0 (m) ROCKET BODY
OV1-20/OV1-21 DEB LEO 2025-04-11 06:37:28 0.0001350234 155.0 (m) DEBRIS
METEOR 2-5 DEB LEO 2024-11-11 14:11:18 0.0001987592 157.0 (m) DEBRIS
IRIDIUM 44 LEO 2024-09-27 00:40:22 0.0002964015 229.0 (m) PAYLOAD
CZ-2D R/B SSO 2024-08-11 21:59:19 0.0003055845 102.0 (m) ROCKET BODY

Associated space launch

The NOAA K, L and M POES satellites begin the fifth generation of improved environmental monitoring in support of NOAA missions. The instrument payload has significant improvements and additions/deletions. The instrument changes have effected the spacecraft subsystems and data formats.

NOAA 16 DEB was lifted into orbit during the mission ‘Titan II SLV | NOAA 16’, on board a Titan II SLV space rocket.

The launch took place on Sept. 21, 2000, 10:22 a.m. from Space Launch Complex 4W.

For more information about the launch, click the button.

Launch to space Titan II SLV | NOAA 16
Titan II SLV | NOAA 16

Agency: N/A

Status: Launch Successful

Launch date: Sept. 21, 2000, 10:22 a.m. UTC

Rocket: Titan II SLV

Launch pad: Space Launch Complex 4W

Location: Vandenberg SFB, CA, USA

...

Latest news about this satellite

There are no fresh news available about this satellite. Check back as we update our databases every day.


Newsletter sign-up

Weekly statistics, charts and insights to help you stay on top of the space industry.